2018-111AA (43900 NORAD) Tracking and Keplerian Element Data

This shows tracking and keplerian element data for the satellite.

Feedback or suggestion? Click here.




ElementValue
Catalog43900
Name2018-111AA
Epoch Orbit458
Epoch Day26.16269668
Epoch Year2019
RAAN295.2471
Inclination97.2995
Eccentricity0.0023988
Argument of Perigee139.7288
Mean Anonmoly220.5732
Mean Motion15.23577935
Decay Rate6.48E-06
L11 43900U 18111AA 19026.16269668 .00000648 00000-0 29808-4 0 9999
L22 43900 97.2995 295.2471 0023988 139.7288 220.5732 15.23577935 4582

Live tracking and technical data element details for 2018-111AA (NORAD 43900). 2018-111AA can be tracked NOW for your location showing map with azimuth and elevation plus other details from your city location.

Track the satellite on the map from your city or location and see movement details for azimuth, elevation, latitude, longitude, range, height, and movement on the map or in text.







IsCatalogInMostPopularTable: catalog: 43900, numindb: 62
Update: records affected: 1



GetName: 43900 2018-111AA

Hit Count: updated at: Thu, 23 May 2019 14:41:28 GMT